When you browse on this site, cookies collect data to enhance your experience and personalize the content and advertising you see.
Visit our Privacy Policy to learn more. By continuing to use the site, you agree to this use of cookies and data.
  • Em Portugal
  • Lista de países
  • Para 7 dias
  • Temperatura da água
  • Mapas de satélite
  • Mapa do tempo
  • Widgets de tempo
  • user-avatar
    Iniciar Sessão

    Previsão horária em Korostino

    Hoje, 21 Julho, Domingo

    Tempo Temperatura Precipitação Vento Pressão Humidade
    00:00 +13°C° 0 mm 1 m/s 741 mmHg 98%
    01:00 +13°C° 0 mm 1 m/s 741 mmHg 98%
    02:00 +13°C° 0 mm 1 m/s 742 mmHg 98%
    03:00 +13°C° 0 mm 1 m/s 742 mmHg 98%
    04:00 +13°C° 0 mm 1 m/s 742 mmHg 98%
    05:00 +13°C° 0 mm 1 m/s 742 mmHg 99%
    06:00 +15°C° 0 mm 1 m/s 742 mmHg 95%
    07:00 +16°C° 0 mm 2 m/s 742 mmHg 91%
    08:00 +18°C° 0 mm 2 m/s 742 mmHg 86%
    09:00 +19°C° 0 mm 2 m/s 742 mmHg 77%
    10:00 +21°C° 0 mm 2 m/s 742 mmHg 67%
    11:00 +23°C° 0 mm 2 m/s 743 mmHg 58%
    12:00 +24°C° 0.1 mm 2 m/s 742 mmHg 56%
    13:00 +24°C° 0.1 mm 1 m/s 742 mmHg 55%
    14:00 +25°C° 0.1 mm 1 m/s 742 mmHg 54%
    15:00 +24°C° 0.4 mm 1 m/s 742 mmHg 63%
    16:00 +23°C° 0.4 mm 1 m/s 742 mmHg 72%
    17:00 +21°C° 0.4 mm 2 m/s 742 mmHg 81%
    18:00 +21°C° 0.2 mm 1 m/s 742 mmHg 85%
    19:00 +19°C° 0.2 mm 1 m/s 742 mmHg 88%
    20:00 +18°C° 0.2 mm 1 m/s 741 mmHg 92%
    21:00 +15°C° 0 mm 0 m/s 742 mmHg 92%
    22:00 +14°C° 0 mm 0 m/s 742 mmHg 93%
    23:00 +13°C° 0 mm 0 m/s 742 mmHg 93%

    Amanhã, 22 Julho, Segunda-feira

    Tempo Temperatura Precipitação Vento Pressão Humidade
    00:00 +13°C° 0 mm 0 m/s 742 mmHg 93%
    01:00 +13°C° 0 mm 0 m/s 742 mmHg 93%
    02:00 +13°C° 0 mm 0 m/s 742 mmHg 94%
    03:00 +13°C° 0 mm 0 m/s 742 mmHg 94%
    04:00 +13°C° 0 mm 0 m/s 741 mmHg 94%
    05:00 +13°C° 0 mm 0 m/s 741 mmHg 94%
    06:00 +15°C° 0 mm 0 m/s 741 mmHg 89%
    07:00 +17°C° 0 mm 0 m/s 741 mmHg 83%
    08:00 +19°C° 0 mm 0 m/s 741 mmHg 78%
    09:00 +21°C° 0 mm 0 m/s 741 mmHg 69%
    10:00 +23°C° 0 mm 0 m/s 741 mmHg 60%
    11:00 +24°C° 0 mm 0 m/s 741 mmHg 51%
    12:00 +26°C° 0 mm 1 m/s 741 mmHg 49%
    13:00 +26°C° 0 mm 1 m/s 740 mmHg 47%
    14:00 +26°C° 0 mm 1 m/s 740 mmHg 45%
    15:00 +26°C° 0 mm 1 m/s 740 mmHg 51%
    16:00 +25°C° 0 mm 1 m/s 740 mmHg 57%
    17:00 +24°C° 0 mm 1 m/s 740 mmHg 63%
    18:00 +22°C° 0.2 mm 1 m/s 740 mmHg 73%
    19:00 +19°C° 0.2 mm 2 m/s 739 mmHg 83%
    20:00 +17°C° 0.2 mm 2 m/s 739 mmHg 94%
    21:00 +16°C° 0.1 mm 2 m/s 739 mmHg 95%
    22:00 +16°C° 0.1 mm 2 m/s 739 mmHg 96%
    23:00 +15°C° 0.1 mm 2 m/s 739 mmHg 98%

    Depois de amanhã, 23 Julho, Terça-feira

    Tempo Temperatura Precipitação Vento Pressão Humidade
    00:00 +15°C° 0.1 mm 2 m/s 739 mmHg 98%
    01:00 +15°C° 0.1 mm 2 m/s 739 mmHg 98%
    02:00 +14°C° 0.1 mm 2 m/s 739 mmHg 98%
    03:00 +15°C° 0.1 mm 2 m/s 739 mmHg 98%
    04:00 +15°C° 0.1 mm 2 m/s 739 mmHg 98%
    05:00 +15°C° 0.1 mm 2 m/s 739 mmHg 98%
    06:00 +16°C° 0.1 mm 2 m/s 739 mmHg 94%
    07:00 +17°C° 0.1 mm 2 m/s 739 mmHg 90%
    08:00 +19°C° 0.1 mm 2 m/s 739 mmHg 87%
    09:00 +19°C° 0.8 mm 2 m/s 739 mmHg 86%
    10:00 +19°C° 0.8 mm 2 m/s 739 mmHg 86%
    11:00 +20°C° 0.8 mm 2 m/s 739 mmHg 85%
    12:00 +21°C° 0.4 mm 2 m/s 739 mmHg 78%
    13:00 +23°C° 0.4 mm 2 m/s 739 mmHg 71%
    14:00 +24°C° 0.4 mm 2 m/s 739 mmHg 63%
    15:00 +24°C° 0.3 mm 2 m/s 739 mmHg 65%
    16:00 +24°C° 0.3 mm 2 m/s 739 mmHg 67%
    17:00 +23°C° 0.3 mm 2 m/s 739 mmHg 69%
    18:00 +21°C° 0.2 mm 2 m/s 739 mmHg 76%
    19:00 +20°C° 0.2 mm 1 m/s 739 mmHg 82%
    20:00 +18°C° 0.2 mm 1 m/s 739 mmHg 88%
    21:00 +16°C° 0 mm 1 m/s 739 mmHg 89%
    22:00 +16°C° 0 mm 1 m/s 740 mmHg 89%
    23:00 +15°C° 0 mm 1 m/s 740 mmHg 90%

    24 Julho, Quarta-feira

    Tempo Temperatura Precipitação Vento Pressão Humidade
    00:00 +15°C° 0 mm 1 m/s 740 mmHg 90%
    01:00 +14°C° 0 mm 1 m/s 740 mmHg 91%
    02:00 +14°C° 0 mm 1 m/s 740 mmHg 91%
    03:00 +14°C° 0 mm 1 m/s 740 mmHg 91%
    04:00 +14°C° 0 mm 1 m/s 740 mmHg 90%
    05:00 +15°C° 0 mm 1 m/s 741 mmHg 90%
    06:00 +18°C° 0 mm 1 m/s 741 mmHg 82%
    07:00 +20°C° 0 mm 1 m/s 741 mmHg 74%
    08:00 +22°C° 0 mm 1 m/s 741 mmHg 66%
    09:00 +23°C° 0 mm 1 m/s 741 mmHg 58%
    10:00 +24°C° 0 mm 2 m/s 741 mmHg 51%
    11:00 +26°C° 0 mm 2 m/s 742 mmHg 43%
    12:00 +26°C° 0 mm 2 m/s 742 mmHg 44%
    13:00 +26°C° 0 mm 2 m/s 742 mmHg 44%
    14:00 +26°C° 0 mm 2 m/s 742 mmHg 44%
    15:00 +26°C° 0 mm 2 m/s 742 mmHg 47%
    16:00 +25°C° 0 mm 2 m/s 742 mmHg 51%
    17:00 +25°C° 0 mm 2 m/s 742 mmHg 54%
    18:00 +23°C° 0 mm 2 m/s 742 mmHg 60%
    19:00 +20°C° 0 mm 2 m/s 742 mmHg 66%
    20:00 +17°C° 0 mm 2 m/s 742 mmHg 72%
    21:00 +18°C° 0 mm 1 m/s 742 mmHg 71%
    22:00 +16°C° 0 mm 1 m/s 742 mmHg 71%
    23:00 +15°C° 0 mm 1 m/s 743 mmHg 70%

    25 Julho, Quinta-feira

    Tempo Temperatura Precipitação Vento Pressão Humidade
    00:00 +14°C° 0 mm 1 m/s 743 mmHg 71%
    01:00 +14°C° 0 mm 1 m/s 743 mmHg 71%
    02:00 +14°C° 0 mm 1 m/s 743 mmHg 72%
    03:00 +14°C° 0 mm 1 m/s 743 mmHg 73%
    04:00 +14°C° 0 mm 1 m/s 744 mmHg 74%
    05:00 +14°C° 0 mm 1 m/s 744 mmHg 76%
    06:00 +16°C° 0 mm 1 m/s 744 mmHg 70%
    07:00 +20°C° 0 mm 1 m/s 744 mmHg 65%
    08:00 +22°C° 0 mm 1 m/s 745 mmHg 59%
    09:00 +23°C° 0 mm 1 m/s 745 mmHg 56%
    10:00 +25°C° 0 mm 1 m/s 745 mmHg 53%
    11:00 +26°C° 0 mm 1 m/s 745 mmHg 50%
    12:00 +26°C° 0 mm 2 m/s 745 mmHg 50%
    13:00 +26°C° 0 mm 2 m/s 744 mmHg 51%
    14:00 +27°C° 0 mm 2 m/s 744 mmHg 51%
    15:00 +26°C° 0.1 mm 2 m/s 744 mmHg 55%
    16:00 +26°C° 0.1 mm 2 m/s 744 mmHg 59%
    17:00 +26°C° 0.1 mm 2 m/s 744 mmHg 62%
    18:00 +24°C° 0 mm 2 m/s 744 mmHg 70%
    19:00 +22°C° 0 mm 1 m/s 744 mmHg 77%
    20:00 +21°C° 0 mm 1 m/s 744 mmHg 85%
    21:00 +20°C° 0 mm 1 m/s 744 mmHg 87%
    22:00 +19°C° 0 mm 1 m/s 744 mmHg 89%
    23:00 +18°C° 0 mm 1 m/s 744 mmHg 92%

    26 Julho, Sexta-feira

    Tempo Temperatura Precipitação Vento Pressão Humidade
    00:00 +18°C° 0 mm 1 m/s 744 mmHg 93%
    01:00 +16°C° 0 mm 1 m/s 744 mmHg 94%
    02:00 +16°C° 0 mm 1 m/s 744 mmHg 96%
    03:00 +16°C° 0 mm 1 m/s 744 mmHg 95%
    04:00 +16°C° 0 mm 1 m/s 744 mmHg 95%
    05:00 +16°C° 0 mm 1 m/s 745 mmHg 94%
    06:00 +19°C° 0 mm 1 m/s 745 mmHg 86%
    07:00 +21°C° 0 mm 1 m/s 745 mmHg 77%
    08:00 +23°C° 0 mm 2 m/s 745 mmHg 69%
    09:00 +24°C° 0 mm 2 m/s 745 mmHg 65%
    10:00 +25°C° 0 mm 2 m/s 745 mmHg 61%
    11:00 +26°C° 0 mm 2 m/s 745 mmHg 56%
    12:00 +26°C° 0 mm 3 m/s 744 mmHg 55%
    13:00 +27°C° 0 mm 3 m/s 744 mmHg 53%
    14:00 +27°C° 0 mm 3 m/s 744 mmHg 52%
    15:00 +27°C° 0 mm 3 m/s 744 mmHg 54%
    16:00 +27°C° 0 mm 3 m/s 743 mmHg 56%
    17:00 +26°C° 0 mm 2 m/s 743 mmHg 58%
    18:00 +24°C° 0 mm 2 m/s 743 mmHg 66%
    19:00 +23°C° 0 mm 2 m/s 743 mmHg 73%
    20:00 +20°C° 0 mm 2 m/s 743 mmHg 80%
    21:00 +20°C° 0 mm 1 m/s 743 mmHg 80%
    22:00 +19°C° 0 mm 1 m/s 743 mmHg 81%
    23:00 +19°C° 0 mm 1 m/s 743 mmHg 81%
    Mostrar mais